COSMOS 1743

Satellite information

Favourite Embed

Satellite Type and Status

PAYLOADIN ORBIT

Key statistics

Satellite COSMOS 1743 at a glance.

Uptime

14239

Days in orbit

Revolutions

≈ 15.4

Per day

Orbit

LEO

Low Earth Orbit

Inclination

82.5

Latest

Satellite identification and parameters

Extended collection of information and parameters for COSMOS 1743.

Object identification

Identified? True

Debris? False

Object name: COSMOS 1743

International designator: 1986-034A

Object number (NORAD): 16719

Object ID (CCSDS): 16719

Country: COMMONWEALTH OF INDEPENDENT STATES (CIS)

Current information (Y/N): Y

RCS size: LARGE

Orbital parameters

Period: 93.392 minutes

Inclination: 82.5429 deg

SMA: 6818.662 km

Apoapsis: 444.214 km

Periapsis: 436.841 km

RAAN: 28.7698 deg

Eccentricy: 0.0005406

Argument of periapsis: 332.1987 deg

Mean anomaly: 27.897 deg

Mean motion: 15.41892066 rev/day

Mean motion (dot): 0.00018989 rev/day2

B* drag term: 0.00044576 1/REarth

Two-line elements (TLE)

Creation date: May 9, 2025, 2:46 a.m.

Reference frame: TEME

Reference center: EARTH

Epoch: May 8, 2025, 8:32 p.m. UTC

TLE line 0: 0 COSMOS 1743

TLE line 1: 1 16719U 86034A 25128.85577833 .00018989 00000-0 44576-3 0 9993

TLE line 2: 2 16719 82.5429 28.7698 0005406 332.1987 27.8970 15.41892066133073

Live tracking on map

Real-time ground track for satellite COSMOS 1743.

In-orbit conjunctions

There are no conjunctions computed for COSMOS 1743, at the moment. Check back to stay up to date, as we update our databases every day.

Go to all conjunctions

Associated space launch

Tselina-D satellites provided detailed observation of radio sources detected by the smaller Tselina-O satellites as part of the Tselina ELINT system.

COSMOS 1743 was lifted into orbit during the mission ‘Tsiklon-3 | Tselina-D 55’, on board a Tsiklon-3 space rocket.

The launch took place on May 15, 1986, 4:26 a.m. from 32/1.

For more information about the launch, click the button.

Launch to space Tsiklon-3 | Tselina-D 55
Tsiklon-3 | Tselina-D 55

Agency: N/A

Status: Launch Successful

Launch date: May 15, 1986, 4:26 a.m. UTC

Rocket: Tsiklon-3

Launch pad: 32/1

Location: Plesetsk Cosmodrome, Russian Federation

...

Latest news about this satellite

There are no fresh news available about this satellite. Check back as we update our databases every day.


Newsletter sign-up

Weekly statistics, charts and insights to help you stay on top of the space industry.